GFSNE_prec_precacc6_132.txt.gz
Total_Precipitation_Accumulation
0.26 0.29 0.21 0.21 0.17 0.09 0.03 0.01 0.00 0.00 0.01 0.00 0.00 0.00 0.00 0.00 0.00 0.00 0.00 0.00 0.00 0.00 0.00 0.00 0.00 0.00 0.00 0.00 0.00 0.01 0.01 0.01 0.00 0.00 0.00 0.00 0.00 0.00
0.38 0.45 0.37 0.32 0.29 0.16 0.07 0.03 0.01 0.00 0.00 0.00 0.00 0.00 0.00 0.00 0.00 0.00 0.00 0.00 0.00 0.00 0.00 0.00 0.01 0.01 0.02 0.01 0.01 0.01 0.00 0.00 0.00 0.00 0.00 0.00 0.00 0.00
0.21 0.34 0.43 0.48 0.53 0.27 0.10 0.05 0.03 0.01 0.00 0.00 0.00 0.00 0.00 0.01 0.01 0.00 0.00 0.00 0.00 0.01 0.02 0.02 0.02 0.03 0.02 0.01 0.01 0.00 0.00 0.00 0.00 0.00 0.00 0.00 0.00 0.00
0.19 0.32 0.34 0.46 0.61 0.44 0.29 0.11 0.06 0.02 0.01 0.00 0.01 0.00 0.01 0.02 0.03 0.02 0.01 0.01 0.00 0.02 0.04 0.04 0.03 0.02 0.00 0.00 0.00 0.00 0.00 0.00 0.00 0.00 0.00 0.00 0.00 0.00
0.07 0.20 0.36 0.44 0.51 0.58 0.51 0.29 0.13 0.06 0.02 0.03 0.03 0.03 0.04 0.04 0.04 0.05 0.06 0.05 0.02 0.07 0.10 0.07 0.02 0.01 0.00 0.00 0.00 0.00 0.00 0.00 0.00 0.00 0.00 0.00 0.00 0.00
0.02 0.08 0.18 0.37 0.37 0.42 0.41 0.43 0.25 0.10 0.03 0.03 0.05 0.09 0.08 0.07 0.06 0.07 0.06 0.06 0.06 0.07 0.08 0.06 0.02 0.01 0.00 0.00 0.00 0.00 0.00 0.00 0.00 0.00 0.00 0.00 0.00 0.00
0.00 0.01 0.07 0.14 0.27 0.36 0.37 0.40 0.36 0.13 0.05 0.03 0.04 0.09 0.12 0.12 0.08 0.06 0.08 0.06 0.07 0.08 0.07 0.04 0.02 0.01 0.01 0.01 0.01 0.01 0.00 0.00 0.00 0.00 0.00 0.00 0.00 0.00
0.01 0.04 0.11 0.14 0.18 0.40 0.39 0.29 0.26 0.19 0.07 0.02 0.04 0.08 0.13 0.13 0.13 0.10 0.08 0.10 0.10 0.07 0.07 0.03 0.01 0.01 0.01 0.01 0.01 0.00 0.00 0.00 0.00 0.00 0.00 0.00 0.00 0.00
0.04 0.15 0.29 0.27 0.27 0.37 0.48 0.40 0.28 0.23 0.19 0.10 0.06 0.08 0.13 0.16 0.17 0.16 0.13 0.12 0.10 0.06 0.05 0.04 0.02 0.01 0.01 0.01 0.01 0.00 0.00 0.00 0.00 0.00 0.00 0.00 0.00 0.00
0.09 0.13 0.30 0.49 0.38 0.42 0.60 0.67 0.59 0.36 0.28 0.24 0.18 0.16 0.16 0.19 0.21 0.19 0.17 0.15 0.11 0.08 0.04 0.03 0.03 0.03 0.01 0.00 0.00 0.00 0.00 0.00 0.00 0.00 0.00 0.00 0.00 0.00
0.04 0.08 0.23 0.35 0.57 0.51 0.49 0.67 0.75 0.59 0.46 0.40 0.34 0.30 0.26 0.23 0.19 0.17 0.17 0.13 0.13 0.08 0.04 0.04 0.03 0.01 0.00 0.00 0.00 0.00 0.00 0.00 0.00 0.00 0.00 0.00 0.00 0.00
0.02 0.05 0.19 0.34 0.50 0.58 0.53 0.50 0.59 0.64 0.44 0.39 0.34 0.26 0.21 0.21 0.17 0.13 0.13 0.10 0.09 0.08 0.04 0.01 0.01 0.00 0.00 0.00 0.00 0.00 0.00 0.00 0.00 0.00 0.00 0.00 0.00 0.00
0.01 0.00 0.02 0.10 0.27 0.47 0.53 0.53 0.58 0.54 0.44 0.39 0.37 0.29 0.22 0.18 0.15 0.14 0.10 0.08 0.06 0.02 0.01 0.00 0.00 0.00 0.00 0.00 0.00 0.00 0.00 0.00 0.00 0.00 0.00 0.00 0.00 0.00
0.00 0.00 0.01 0.02 0.08 0.20 0.32 0.39 0.43 0.37 0.32 0.34 0.33 0.29 0.22 0.16 0.12 0.08 0.06 0.03 0.01 0.00 0.00 0.00 0.00 0.00 0.00 0.00 0.00 0.00 0.00 0.00 0.00 0.00 0.00 0.00 0.00 0.00
0.01 0.02 0.02 0.03 0.04 0.06 0.11 0.14 0.14 0.12 0.12 0.13 0.15 0.14 0.11 0.07 0.05 0.03 0.01 0.00 0.00 0.00 0.00 0.00 0.00 0.00 0.00 0.00 0.00 0.00 0.00 0.00 0.00 0.00 0.00 0.00 0.00 0.00
0.04 0.02 0.02 0.03 0.02 0.03 0.03 0.03 0.02 0.02 0.02 0.04 0.04 0.03 0.02 0.01 0.01 0.00 0.00 0.00 0.00 0.00 0.00 0.00 0.00 0.00 0.00 0.00 0.00 0.00 0.00 0.00 0.00 0.00 0.00 0.00 0.00 0.00
0.01 0.01 0.01 0.00 0.01 0.00 0.00 0.00 0.02 0.03 0.02 0.02 0.01 0.01 0.00 0.00 0.00 0.00 0.00 0.00 0.00 0.00 0.00 0.00 0.00 0.00 0.00 0.00 0.00 0.00 0.00 0.00 0.00 0.00 0.00 0.00 0.00 0.00
0.02 0.02 0.02 0.01 0.01 0.01 0.02 0.02 0.04 0.06 0.04 0.02 0.01 0.00 0.00 0.00 0.00 0.00 0.00 0.00 0.00 0.00 0.00 0.00 0.00 0.00 0.00 0.00 0.00 0.00 0.00 0.00 0.00 0.00 0.00 0.00 0.00 0.00
0.04 0.07 0.08 0.09 0.10 0.09 0.07 0.05 0.05 0.04 0.03 0.02 0.01 0.00 0.00 0.00 0.00 0.00 0.00 0.00 0.00 0.00 0.00 0.00 0.00 0.00 0.00 0.00 0.00 0.00 0.00 0.00 0.00 0.00 0.00 0.00 0.00 0.00
0.18 0.21 0.25 0.25 0.25 0.24 0.20 0.16 0.11 0.07 0.05 0.03 0.01 0.01 0.00 0.00 0.00 0.00 0.00 0.00 0.00 0.00 0.00 0.00 0.00 0.00 0.00 0.00 0.00 0.00 0.00 0.00 0.00 0.00 0.00 0.00 0.00 0.00
0.30 0.33 0.35 0.31 0.26 0.22 0.18 0.13 0.08 0.05 0.03 0.01 0.00 0.00 0.00 0.00 0.00 0.00 0.00 0.00 0.00 0.00 0.00 0.00 0.00 0.00 0.00 0.00 0.00 0.00 0.00 0.00 0.00 0.00 0.00 0.00 0.00 0.00
0.58 0.44 0.33 0.27 0.22 0.15 0.09 0.06 0.04 0.02 0.01 0.00 0.00 0.00 0.00 0.00 0.00 0.00 0.00 0.00 0.00 0.00 0.00 0.00 0.00 0.00 0.00 0.00 0.00 0.00 0.00 0.00 0.00 0.00 0.00 0.00 0.00 0.01
0.37 0.30 0.22 0.14 0.09 0.06 0.04 0.02 0.01 0.00 0.00 0.00 0.00 0.00 0.00 0.00 0.00 0.00 0.00 0.00 0.00 0.00 0.00 0.00 0.00 0.00 0.00 0.00 0.00 0.00 0.00 0.00 0.00 0.00 0.00 0.00 0.00 0.00

GFSNE_prec_precacc6_135.txt.gz
Total_Precipitation_Accumulation
0.03 0.04 0.14 0.19 0.17 0.12 0.08 0.07 0.07 0.09 0.06 0.01 0.00 0.00 0.00 0.00 0.00 0.00 0.00 0.00 0.00 0.00 0.00 0.00 0.00 0.00 0.00 0.01 0.01 0.01 0.01 0.01 0.00 0.00 0.00 0.00 0.00 0.00
0.07 0.14 0.26 0.26 0.30 0.23 0.21 0.18 0.11 0.07 0.06 0.04 0.00 0.00 0.00 0.00 0.01 0.00 0.00 0.01 0.00 0.00 0.00 0.00 0.01 0.01 0.01 0.01 0.01 0.01 0.00 0.00 0.00 0.00 0.00 0.00 0.00 0.00
0.04 0.14 0.28 0.39 0.49 0.40 0.31 0.27 0.17 0.12 0.10 0.05 0.02 0.00 0.00 0.00 0.01 0.01 0.00 0.00 0.00 0.00 0.01 0.02 0.04 0.08 0.07 0.02 0.01 0.01 0.00 0.00 0.00 0.00 0.00 0.00 0.00 0.00
0.02 0.05 0.15 0.33 0.52 0.66 0.57 0.37 0.20 0.15 0.14 0.03 0.01 0.02 0.02 0.02 0.03 0.02 0.01 0.02 0.01 0.02 0.03 0.06 0.08 0.10 0.11 0.08 0.01 0.00 0.00 0.00 0.00 0.00 0.00 0.00 0.00 0.00
0.01 0.02 0.08 0.23 0.38 0.56 0.58 0.38 0.22 0.22 0.17 0.06 0.03 0.06 0.07 0.05 0.04 0.06 0.07 0.07 0.05 0.07 0.10 0.13 0.13 0.12 0.09 0.05 0.01 0.00 0.00 0.00 0.00 0.00 0.00 0.00 0.00 0.00
0.01 0.00 0.02 0.12 0.22 0.35 0.56 0.62 0.41 0.31 0.15 0.07 0.07 0.12 0.09 0.07 0.07 0.08 0.11 0.12 0.14 0.15 0.15 0.13 0.10 0.07 0.03 0.02 0.01 0.01 0.00 0.00 0.00 0.00 0.00 0.00 0.00 0.00
0.00 0.00 0.00 0.01 0.07 0.27 0.38 0.54 0.70 0.39 0.18 0.13 0.08 0.12 0.14 0.14 0.12 0.09 0.10 0.12 0.14 0.14 0.17 0.15 0.11 0.07 0.05 0.03 0.01 0.01 0.01 0.00 0.00 0.00 0.00 0.00 0.00 0.00
0.00 0.00 0.01 0.02 0.02 0.16 0.35 0.40 0.37 0.32 0.21 0.13 0.07 0.08 0.12 0.18 0.23 0.22 0.18 0.18 0.17 0.11 0.10 0.08 0.03 0.01 0.01 0.01 0.02 0.01 0.01 0.00 0.00 0.00 0.00 0.00 0.00 0.00
0.00 0.00 0.01 0.06 0.14 0.20 0.38 0.39 0.38 0.34 0.29 0.18 0.09 0.06 0.12 0.17 0.25 0.29 0.24 0.20 0.16 0.14 0.13 0.09 0.03 0.02 0.02 0.02 0.03 0.01 0.00 0.00 0.00 0.00 0.00 0.00 0.00 0.00
0.01 0.02 0.03 0.12 0.18 0.27 0.49 0.50 0.40 0.35 0.32 0.31 0.23 0.17 0.15 0.22 0.31 0.27 0.30 0.32 0.30 0.21 0.10 0.07 0.05 0.04 0.02 0.01 0.01 0.00 0.00 0.00 0.00 0.00 0.00 0.00 0.00 0.00
0.02 0.02 0.05 0.10 0.28 0.26 0.31 0.45 0.49 0.43 0.42 0.41 0.35 0.40 0.44 0.45 0.39 0.33 0.34 0.29 0.28 0.21 0.14 0.13 0.08 0.04 0.02 0.01 0.00 0.00 0.00 0.00 0.00 0.00 0.00 0.00 0.00 0.00
0.01 0.03 0.06 0.07 0.20 0.26 0.26 0.30 0.41 0.51 0.34 0.36 0.45 0.48 0.48 0.49 0.49 0.39 0.28 0.25 0.24 0.21 0.12 0.10 0.09 0.04 0.02 0.01 0.00 0.00 0.00 0.00 0.00 0.00 0.00 0.00 0.00 0.00
0.01 0.01 0.01 0.03 0.09 0.20 0.29 0.33 0.42 0.48 0.52 0.52 0.55 0.50 0.45 0.40 0.38 0.40 0.33 0.25 0.21 0.12 0.09 0.08 0.05 0.02 0.00 0.00 0.00 0.00 0.00 0.00 0.00 0.00 0.00 0.00 0.00 0.00
0.01 0.01 0.02 0.02 0.03 0.12 0.25 0.38 0.50 0.49 0.52 0.65 0.68 0.62 0.51 0.43 0.36 0.30 0.24 0.17 0.11 0.08 0.08 0.04 0.02 0.00 0.00 0.00 0.00 0.00 0.00 0.00 0.00 0.00 0.00 0.00 0.00 0.00
0.02 0.03 0.03 0.02 0.02 0.04 0.10 0.17 0.22 0.27 0.34 0.43 0.48 0.46 0.40 0.31 0.25 0.20 0.15 0.10 0.08 0.07 0.04 0.01 0.00 0.00 0.00 0.00 0.00 0.00 0.00 0.00 0.00 0.00 0.00 0.00 0.00 0.00
0.04 0.02 0.02 0.01 0.02 0.02 0.02 0.03 0.04 0.10 0.13 0.18 0.21 0.19 0.14 0.13 0.12 0.11 0.08 0.06 0.04 0.02 0.01 0.00 0.00 0.00 0.00 0.00 0.00 0.00 0.00 0.00 0.00 0.00 0.00 0.00 0.00 0.00
0.00 0.01 0.01 0.00 0.00 0.00 0.00 0.00 0.02 0.06 0.06 0.06 0.05 0.04 0.03 0.03 0.02 0.03 0.03 0.02 0.01 0.00 0.00 0.00 0.00 0.00 0.00 0.00 0.00 0.00 0.00 0.00 0.00 0.00 0.00 0.00 0.00 0.00
0.01 0.01 0.01 0.00 0.00 0.00 0.00 0.01 0.03 0.06 0.03 0.01 0.01 0.01 0.01 0.00 0.00 0.00 0.00 0.00 0.00 0.00 0.00 0.00 0.00 0.00 0.00 0.00 0.00 0.00 0.00 0.00 0.00 0.00 0.00 0.00 0.00 0.00
0.03 0.02 0.02 0.03 0.02 0.02 0.03 0.04 0.04 0.04 0.03 0.03 0.02 0.01 0.01 0.00 0.00 0.00 0.00 0.00 0.00 0.00 0.00 0.00 0.00 0.00 0.00 0.00 0.00 0.00 0.00 0.00 0.00 0.00 0.00 0.00 0.00 0.00
0.09 0.09 0.11 0.11 0.14 0.15 0.15 0.13 0.11 0.08 0.07 0.05 0.04 0.03 0.02 0.01 0.01 0.01 0.00 0.00 0.00 0.00 0.00 0.00 0.00 0.00 0.00 0.00 0.00 0.00 0.00 0.00 0.00 0.00 0.00 0.00 0.00 0.00
0.24 0.28 0.31 0.29 0.26 0.25 0.24 0.20 0.16 0.14 0.10 0.07 0.04 0.02 0.01 0.01 0.00 0.00 0.00 0.00 0.00 0.00 0.00 0.00 0.00 0.00 0.00 0.00 0.00 0.00 0.00 0.00 0.00 0.00 0.00 0.00 0.00 0.00
0.73 0.59 0.50 0.47 0.41 0.34 0.28 0.22 0.16 0.11 0.08 0.05 0.03 0.02 0.01 0.00 0.00 0.00 0.00 0.00 0.00 0.00 0.00 0.00 0.00 0.00 0.00 0.00 0.00 0.00 0.00 0.00 0.00 0.00 0.00 0.00 0.00 0.00
0.68 0.61 0.50 0.37 0.29 0.22 0.17 0.13 0.08 0.06 0.04 0.02 0.01 0.01 0.00 0.00 0.00 0.00 0.00 0.00 0.00 0.00 0.00 0.00 0.00 0.00 0.00 0.00 0.00 0.00 0.00 0.00 0.00 0.00 0.00 0.00 0.00 0.00

GFSNE_prec_precacc6_138.txt.gz
Total_Precipitation_Accumulation
0.06 0.04 0.04 0.04 0.04 0.06 0.07 0.07 0.08 0.14 0.12 0.06 0.02 0.00 0.00 0.00 0.00 0.00 0.00 0.00 0.00 0.00 0.00 0.00 0.00 0.00 0.00 0.00 0.01 0.00 0.00 0.00 0.00 0.00 0.00 0.00 0.00 0.00
0.06 0.03 0.03 0.05 0.09 0.12 0.17 0.19 0.13 0.13 0.15 0.12 0.08 0.04 0.01 0.00 0.01 0.00 0.00 0.00 0.00 0.00 0.00 0.00 0.01 0.01 0.01 0.01 0.01 0.00 0.00 0.00 0.00 0.00 0.00 0.00 0.00 0.00
0.06 0.03 0.04 0.07 0.15 0.20 0.27 0.32 0.28 0.27 0.33 0.22 0.15 0.14 0.11 0.04 0.01 0.00 0.00 0.00 0.01 0.01 0.00 0.02 0.04 0.06 0.08 0.07 0.06 0.05 0.03 0.01 0.00 0.00 0.00 0.00 0.00 0.00
0.04 0.06 0.04 0.06 0.19 0.38 0.39 0.40 0.44 0.45 0.53 0.30 0.16 0.21 0.20 0.12 0.02 0.00 0.00 0.01 0.01 0.02 0.02 0.05 0.07 0.09 0.12 0.12 0.09 0.06 0.03 0.01 0.00 0.00 0.00 0.00 0.00 0.00
0.04 0.04 0.04 0.04 0.07 0.20 0.28 0.26 0.24 0.39 0.46 0.18 0.09 0.14 0.18 0.17 0.08 0.03 0.01 0.03 0.05 0.05 0.03 0.09 0.13 0.13 0.12 0.10 0.08 0.05 0.03 0.01 0.00 0.00 0.00 0.00 0.00 0.00
0.03 0.04 0.04 0.02 0.02 0.09 0.31 0.31 0.26 0.42 0.38 0.16 0.14 0.18 0.18 0.20 0.17 0.08 0.07 0.08 0.09 0.09 0.10 0.11 0.12 0.10 0.08 0.06 0.04 0.03 0.01 0.01 0.00 0.00 0.00 0.00 0.00 0.00
0.00 0.01 0.01 0.02 0.03 0.08 0.14 0.25 0.46 0.37 0.22 0.24 0.21 0.20 0.20 0.16 0.17 0.13 0.10 0.12 0.12 0.10 0.13 0.16 0.15 0.14 0.15 0.12 0.07 0.04 0.02 0.01 0.00 0.00 0.00 0.00 0.00 0.00
0.00 0.00 0.00 0.01 0.00 0.01 0.09 0.21 0.21 0.19 0.17 0.17 0.16 0.14 0.13 0.15 0.22 0.27 0.26 0.21 0.18 0.11 0.10 0.11 0.09 0.10 0.10 0.08 0.06 0.03 0.02 0.01 0.00 0.00 0.00 0.00 0.00 0.00
0.00 0.00 0.00 0.00 0.02 0.00 0.03 0.12 0.27 0.24 0.15 0.13 0.10 0.09 0.13 0.15 0.23 0.36 0.30 0.22 0.17 0.16 0.18 0.19 0.12 0.10 0.08 0.05 0.05 0.03 0.01 0.00 0.00 0.00 0.00 0.00 0.00 0.00
0.03 0.00 0.00 0.00 0.02 0.03 0.08 0.14 0.13 0.23 0.24 0.24 0.20 0.18 0.18 0.26 0.37 0.39 0.41 0.45 0.47 0.37 0.22 0.17 0.13 0.11 0.07 0.04 0.06 0.02 0.01 0.00 0.00 0.00 0.00 0.00 0.00 0.00
0.20 0.07 0.01 0.02 0.07 0.07 0.10 0.15 0.16 0.25 0.34 0.36 0.33 0.42 0.52 0.57 0.59 0.59 0.58 0.48 0.45 0.34 0.26 0.22 0.18 0.14 0.11 0.06 0.05 0.04 0.02 0.01 0.00 0.00 0.00 0.00 0.00 0.00
0.09 0.06 0.04 0.01 0.05 0.05 0.07 0.13 0.16 0.21 0.17 0.22 0.36 0.52 0.56 0.61 0.70 0.63 0.45 0.40 0.37 0.35 0.25 0.22 0.21 0.15 0.14 0.08 0.06 0.04 0.01 0.00 0.00 0.00 0.00 0.00 0.00 0.00
0.04 0.02 0.01 0.03 0.01 0.01 0.04 0.06 0.12 0.19 0.31 0.32 0.37 0.43 0.48 0.49 0.49 0.60 0.63 0.50 0.38 0.29 0.19 0.19 0.18 0.12 0.08 0.05 0.05 0.02 0.00 0.00 0.00 0.00 0.00 0.00 0.00 0.00
0.08 0.02 0.02 0.03 0.01 0.01 0.03 0.10 0.17 0.20 0.25 0.36 0.45 0.50 0.47 0.48 0.50 0.48 0.47 0.43 0.41 0.32 0.22 0.16 0.14 0.09 0.06 0.04 0.02 0.00 0.00 0.00 0.00 0.00 0.00 0.00 0.00 0.00
0.08 0.09 0.04 0.03 0.01 0.01 0.03 0.06 0.11 0.16 0.24 0.34 0.42 0.47 0.51 0.53 0.51 0.47 0.43 0.37 0.31 0.29 0.21 0.14 0.10 0.07 0.02 0.00 0.00 0.00 0.00 0.00 0.00 0.00 0.00 0.00 0.00 0.00
0.13 0.07 0.03 0.02 0.02 0.01 0.01 0.01 0.02 0.08 0.13 0.20 0.30 0.34 0.33 0.34 0.37 0.35 0.30 0.29 0.24 0.20 0.13 0.10 0.07 0.04 0.02 0.00 0.00 0.00 0.00 0.00 0.00 0.00 0.00 0.00 0.00 0.00
0.09 0.06 0.03 0.01 0.00 0.00 0.00 0.00 0.01 0.05 0.07 0.08 0.11 0.14 0.17 0.19 0.20 0.19 0.17 0.15 0.13 0.10 0.06 0.03 0.02 0.01 0.00 0.00 0.00 0.00 0.00 0.00 0.00 0.00 0.00 0.00 0.00 0.00
0.12 0.07 0.05 0.02 0.01 0.01 0.00 0.01 0.01 0.02 0.01 0.01 0.02 0.04 0.06 0.06 0.06 0.06 0.06 0.05 0.03 0.02 0.01 0.00 0.00 0.00 0.00 0.00 0.00 0.00 0.00 0.00 0.00 0.00 0.00 0.00 0.00 0.00
0.10 0.08 0.06 0.03 0.02 0.01 0.01 0.01 0.01 0.01 0.01 0.01 0.02 0.02 0.02 0.03 0.02 0.01 0.00 0.00 0.00 0.00 0.00 0.00 0.00 0.00 0.00 0.00 0.00 0.00 0.00 0.00 0.00 0.00 0.00 0.00 0.00 0.00
0.17 0.15 0.12 0.07 0.04 0.03 0.02 0.03 0.03 0.03 0.03 0.03 0.04 0.04 0.03 0.02 0.01 0.01 0.00 0.00 0.00 0.00 0.00 0.00 0.00 0.00 0.00 0.00 0.00 0.00 0.00 0.00 0.00 0.00 0.00 0.00 0.00 0.00
0.30 0.32 0.31 0.23 0.19 0.15 0.13 0.12 0.10 0.10 0.08 0.07 0.06 0.03 0.02 0.02 0.02 0.01 0.01 0.00 0.00 0.00 0.00 0.00 0.00 0.00 0.00 0.00 0.00 0.00 0.00 0.00 0.00 0.00 0.00 0.00 0.00 0.00
0.54 0.52 0.51 0.50 0.46 0.45 0.43 0.36 0.28 0.22 0.16 0.12 0.09 0.06 0.03 0.02 0.01 0.01 0.01 0.00 0.00 0.00 0.00 0.00 0.00 0.00 0.00 0.00 0.00 0.00 0.00 0.00 0.00 0.00 0.00 0.00 0.00 0.00
0.60 0.60 0.60 0.55 0.51 0.46 0.38 0.34 0.27 0.22 0.16 0.12 0.09 0.06 0.04 0.03 0.02 0.01 0.01 0.01 0.00 0.00 0.00 0.00 0.00 0.00 0.00 0.00 0.00 0.00 0.00 0.00 0.00 0.00 0.00 0.00 0.00 0.00

GFSNE_prec_precacc6_144.txt.gz
Total_Precipitation_Accumulation
0.05 0.06 0.05 0.08 0.08 0.05 0.05 0.03 0.02 0.01 0.00 0.00 0.01 0.01 0.02 0.03 0.05 0.04 0.02 0.00 0.00 0.00 0.00 0.00 0.00 0.00 0.01 0.01 0.01 0.01 0.00 0.00 0.00 0.00 0.00 0.00 0.00 0.00
0.04 0.05 0.05 0.03 0.05 0.05 0.09 0.08 0.01 0.02 0.02 0.01 0.00 0.01 0.04 0.03 0.03 0.03 0.00 0.01 0.00 0.00 0.00 0.00 0.00 0.00 0.00 0.00 0.00 0.00 0.00 0.00 0.00 0.00 0.00 0.00 0.00 0.00
0.07 0.06 0.07 0.09 0.07 0.09 0.10 0.11 0.05 0.02 0.02 0.01 0.01 0.05 0.09 0.11 0.10 0.08 0.04 0.02 0.00 0.00 0.00 0.00 0.00 0.00 0.00 0.00 0.00 0.00 0.01 0.01 0.01 0.01 0.00 0.00 0.00 0.00
0.05 0.05 0.04 0.07 0.08 0.10 0.08 0.06 0.03 0.02 0.03 0.10 0.07 0.09 0.14 0.17 0.20 0.15 0.08 0.04 0.02 0.02 0.01 0.00 0.00 0.00 0.00 0.00 0.01 0.02 0.02 0.03 0.03 0.03 0.02 0.02 0.01 0.00
0.04 0.04 0.04 0.06 0.08 0.07 0.05 0.06 0.06 0.03 0.06 0.09 0.05 0.06 0.10 0.15 0.25 0.31 0.25 0.14 0.07 0.06 0.06 0.04 0.02 0.02 0.01 0.02 0.02 0.02 0.04 0.06 0.06 0.06 0.05 0.04 0.02 0.00
0.08 0.06 0.07 0.09 0.06 0.05 0.05 0.06 0.07 0.08 0.06 0.04 0.03 0.04 0.05 0.11 0.19 0.23 0.27 0.26 0.19 0.12 0.11 0.09 0.07 0.06 0.06 0.04 0.03 0.03 0.03 0.03 0.03 0.03 0.02 0.01 0.00 0.00
0.13 0.08 0.07 0.10 0.10 0.08 0.06 0.05 0.06 0.07 0.06 0.03 0.03 0.03 0.05 0.07 0.11 0.19 0.25 0.26 0.28 0.29 0.21 0.16 0.11 0.08 0.07 0.07 0.08 0.08 0.06 0.05 0.04 0.04 0.03 0.02 0.01 0.01
0.14 0.13 0.11 0.11 0.08 0.08 0.08 0.08 0.05 0.04 0.02 0.01 0.01 0.01 0.02 0.04 0.10 0.19 0.25 0.33 0.42 0.36 0.32 0.33 0.23 0.16 0.13 0.11 0.14 0.11 0.09 0.09 0.07 0.05 0.03 0.02 0.02 0.02
0.12 0.10 0.19 0.25 0.14 0.08 0.10 0.08 0.08 0.06 0.01 0.00 0.00 0.00 0.02 0.05 0.11 0.23 0.26 0.26 0.27 0.23 0.39 0.58 0.45 0.35 0.24 0.23 0.21 0.17 0.14 0.10 0.07 0.05 0.05 0.04 0.03 0.01
0.09 0.24 0.35 0.35 0.29 0.16 0.09 0.08 0.03 0.02 0.02 0.01 0.00 0.00 0.00 0.06 0.16 0.21 0.31 0.44 0.46 0.46 0.56 0.58 0.42 0.36 0.35 0.34 0.34 0.24 0.19 0.14 0.10 0.09 0.07 0.05 0.03 0.01
0.04 0.15 0.20 0.36 0.46 0.42 0.27 0.16 0.07 0.03 0.06 0.06 0.03 0.02 0.01 0.03 0.14 0.26 0.33 0.36 0.39 0.39 0.34 0.30 0.34 0.36 0.41 0.37 0.34 0.31 0.23 0.17 0.14 0.13 0.10 0.06 0.03 0.01
0.01 0.05 0.12 0.10 0.17 0.18 0.13 0.10 0.08 0.03 0.01 0.02 0.04 0.05 0.04 0.05 0.13 0.11 0.23 0.30 0.33 0.34 0.30 0.27 0.31 0.34 0.48 0.44 0.35 0.33 0.28 0.23 0.19 0.15 0.10 0.05 0.01 0.00
0.02 0.01 0.03 0.09 0.09 0.14 0.16 0.07 0.02 0.02 0.03 0.03 0.04 0.08 0.07 0.06 0.08 0.15 0.18 0.28 0.24 0.25 0.18 0.24 0.33 0.38 0.39 0.38 0.34 0.35 0.30 0.27 0.25 0.17 0.10 0.04 0.01 0.00
0.05 0.12 0.11 0.11 0.07 0.10 0.13 0.15 0.09 0.03 0.00 0.00 0.00 0.03 0.06 0.06 0.06 0.09 0.16 0.24 0.22 0.33 0.39 0.41 0.36 0.33 0.38 0.41 0.37 0.37 0.33 0.28 0.21 0.12 0.06 0.03 0.01 0.00
0.02 0.10 0.26 0.29 0.21 0.13 0.13 0.17 0.18 0.13 0.08 0.04 0.00 0.00 0.02 0.04 0.07 0.14 0.19 0.20 0.22 0.33 0.43 0.43 0.35 0.40 0.44 0.40 0.34 0.32 0.33 0.29 0.17 0.09 0.05 0.02 0.00 0.00
0.03 0.06 0.09 0.10 0.18 0.25 0.27 0.22 0.15 0.13 0.18 0.18 0.11 0.04 0.02 0.04 0.08 0.13 0.18 0.21 0.28 0.40 0.46 0.47 0.44 0.44 0.49 0.44 0.32 0.30 0.24 0.17 0.12 0.07 0.02 0.00 0.00 0.00
0.03 0.05 0.08 0.10 0.09 0.13 0.14 0.12 0.11 0.13 0.12 0.11 0.08 0.03 0.02 0.03 0.07 0.12 0.14 0.16 0.23 0.32 0.38 0.48 0.50 0.43 0.37 0.31 0.27 0.22 0.16 0.10 0.07 0.03 0.01 0.00 0.00 0.00
0.02 0.03 0.05 0.11 0.14 0.12 0.14 0.16 0.12 0.08 0.06 0.06 0.02 0.01 0.01 0.03 0.07 0.15 0.20 0.23 0.27 0.32 0.35 0.38 0.33 0.25 0.20 0.19 0.16 0.14 0.10 0.05 0.03 0.01 0.00 0.00 0.00 0.00
0.01 0.02 0.04 0.07 0.11 0.14 0.14 0.13 0.11 0.11 0.09 0.05 0.01 0.01 0.02 0.04 0.08 0.09 0.12 0.14 0.18 0.18 0.18 0.20 0.18 0.13 0.11 0.10 0.09 0.06 0.03 0.01 0.00 0.00 0.00 0.00 0.00 0.00
0.02 0.02 0.05 0.09 0.12 0.15 0.15 0.14 0.14 0.12 0.09 0.05 0.03 0.03 0.04 0.05 0.06 0.06 0.06 0.06 0.06 0.07 0.07 0.06 0.04 0.03 0.02 0.02 0.02 0.01 0.00 0.00 0.00 0.00 0.00 0.00 0.00 0.00
0.04 0.06 0.10 0.14 0.16 0.17 0.18 0.18 0.17 0.17 0.14 0.10 0.07 0.05 0.04 0.03 0.04 0.03 0.04 0.04 0.03 0.02 0.01 0.01 0.00 0.00 0.00 0.00 0.00 0.00 0.00 0.00 0.00 0.00 0.00 0.00 0.00 0.00
0.07 0.11 0.16 0.21 0.24 0.27 0.28 0.29 0.30 0.30 0.26 0.20 0.14 0.07 0.05 0.03 0.04 0.04 0.04 0.04 0.03 0.01 0.01 0.00 0.00 0.00 0.00 0.00 0.01 0.01 0.00 0.00 0.00 0.00 0.00 0.00 0.00 0.00
0.11 0.13 0.16 0.20 0.25 0.29 0.34 0.38 0.43 0.46 0.41 0.33 0.25 0.16 0.10 0.08 0.06 0.04 0.03 0.02 0.02 0.02 0.01 0.01 0.01 0.01 0.01 0.01 0.01 0.01 0.00 0.00 0.00 0.00 0.00 0.00 0.00 0.00